Location: Abraham Lincoln Continuation High School
(33.9711°N, 117.3662°W)
Time: 14:52:43
(UTC+00:00)

H-2A R/B - Pass Details

Date: 21 September 2020
Orbit: 577 x 655 km, 98.5° (Epoch: 28 October)

Event Time Altitude Azimuth Distance (km) Brightness Sun altitude
Rises 11:05:16 0° 142° (SE) 2,875 5.6 -31.4°
Reaches altitude 10° 11:07:36 10° 132° (SE) 1,987 4.9 -31.0°
Maximum altitude 11:11:25 31° 71° (ENE) 1,119 3.9 -30.2°
Drops below altitude 10° 11:15:18 10° 9° (N) 2,038 5.0 -29.5°
Sets 11:17:43 0° 360° (N) 2,961 5.8 -29.0°
